Time,TemperatureF,DewpointF,PressureIn,WindDirection,WindDirectionDegrees,WindSpeedMPH,WindSpeedGustMPH,Humidity,HourlyPrecipIn,Conditions,Clouds,dailyrainin,SoftwareType,DateUTC
2013-03-16 00:00:00,62.1,53.3,30.00,SSE,163,5.0,5.0,73,0.00,,SKC,0.00,VWS V14.01,2013-03-16 05:00:00,
2013-03-16 00:05:00,62.0,53.3,30.00,SSE,163,0.0,5.0,73,0.00,,SKC,0.00,VWS V14.01,2013-03-16 05:05:00,
2013-03-16 00:10:00,61.7,53.3,30.00,SSE,163,0.0,2.0,74,0.00,,SKC,0.00,VWS V14.01,2013-03-16 05:10:00,
2013-03-16 00:15:00,61.6,53.6,30.00,SSE,163,0.0,4.0,75,0.00,,SKC,0.00,VWS V14.01,2013-03-16 05:15:00,
2013-03-16 00:20:00,61.4,53.8,29.99,SSE,163,1.0,6.0,76,0.00,,SKC,0.00,VWS V14.01,2013-03-16 05:20:00,
2013-03-16 00:25:00,61.2,53.6,29.99,SSE,163,0.0,6.0,76,0.00,,SKC,0.00,VWS V14.01,2013-03-16 05:25:00,
2013-03-16 00:30:00,61.1,53.8,29.99,SSE,163,0.0,0.0,77,0.00,,SKC,0.00,VWS V14.01,2013-03-16 05:30:00,
2013-03-16 00:35:00,60.9,54.0,29.99,SSE,163,0.0,4.0,78,0.00,,SKC,0.00,VWS V14.01,2013-03-16 05:35:00,
2013-03-16 00:40:00,60.8,53.9,29.99,SSE,163,0.0,1.0,78,0.00,,SKC,0.00,VWS V14.01,2013-03-16 05:40:00,
2013-03-16 00:45:00,60.7,54.2,29.99,SSE,163,2.0,6.0,79,0.00,,SKC,0.00,VWS V14.01,2013-03-16 05:45:00,
2013-03-16 00:50:00,60.5,54.0,29.98,SSE,163,0.0,0.0,79,0.00,,SKC,0.00,VWS V14.01,2013-03-16 05:50:00,
2013-03-16 00:55:00,60.3,54.1,29.98,SSE,163,0.0,8.0,80,0.00,,SKC,0.00,VWS V14.01,2013-03-16 05:55:00,
2013-03-16 01:00:00,60.2,54.0,29.98,SSE,163,0.0,4.0,80,0.00,,SKC,0.00,VWS V14.01,2013-03-16 06:00:00,
2013-03-16 01:05:00,60.0,53.8,29.98,SSE,163,0.0,4.0,80,0.00,,SKC,0.00,VWS V14.01,2013-03-16 06:05:00,
2013-03-16 01:10:00,59.9,54.1,29.98,SSE,163,0.0,0.0,81,0.00,,SKC,0.00,VWS V14.01,2013-03-16 06:10:00,
2013-03-16 01:15:00,59.7,53.9,29.98,SSE,163,0.0,0.0,81,0.00,,SKC,0.00,VWS V14.01,2013-03-16 06:15:00,
2013-03-16 01:20:00,59.6,53.8,29.98,SSE,163,0.0,0.0,81,0.00,,SKC,0.00,VWS V14.01,2013-03-16 06:20:00,
2013-03-16 01:25:00,59.4,53.6,29.98,SSE,163,0.0,0.0,81,0.00,,SKC,0.00,VWS V14.01,2013-03-16 06:25:00,
2013-03-16 01:30:00,59.2,53.7,29.98,SSE,163,0.0,0.0,82,0.00,,SKC,0.00,VWS V14.01,2013-03-16 06:30:00,
2013-03-16 01:35:00,59.0,53.5,29.98,SSE,163,0.0,0.0,82,0.00,,SKC,0.00,VWS V14.01,2013-03-16 06:35:00,
2013-03-16 01:40:00,58.8,53.3,29.98,SSE,163,0.0,0.0,82,0.00,,SKC,0.00,VWS V14.01,2013-03-16 06:40:00,
2013-03-16 01:45:00,58.7,53.6,29.97,SSE,163,0.0,0.0,83,0.00,,SKC,0.00,VWS V14.01,2013-03-16 06:45:00,
2013-03-16 01:50:00,58.5,53.4,29.97,SSE,163,0.0,0.0,83,0.00,,SKC,0.00,VWS V14.01,2013-03-16 06:50:00,
2013-03-16 01:55:00,58.4,53.3,29.97,SSE,163,0.0,0.0,83,0.00,,SKC,0.00,VWS V14.01,2013-03-16 06:55:00,
2013-03-16 02:00:00,58.3,53.5,29.97,SSE,163,0.0,0.0,84,0.00,,SKC,0.00,VWS V14.01,2013-03-16 07:00:00,
2013-03-16 02:05:00,58.1,53.3,29.97,SSE,163,0.0,0.0,84,0.00,,SKC,0.00,VWS V14.01,2013-03-16 07:05:00,
2013-03-16 02:10:00,57.9,53.1,29.97,SSE,163,0.0,0.0,84,0.00,,SKC,0.00,VWS V14.01,2013-03-16 07:10:00,
2013-03-16 02:15:00,57.8,53.3,29.97,SSE,163,0.0,1.0,85,0.00,,SKC,0.00,VWS V14.01,2013-03-16 07:15:00,
2013-03-16 02:20:00,57.7,53.2,29.97,SSE,163,0.0,0.0,85,0.00,,SKC,0.00,VWS V14.01,2013-03-16 07:20:00,
2013-03-16 02:25:00,57.7,53.5,29.97,SSE,163,1.0,2.0,86,0.00,,SKC,0.00,VWS V14.01,2013-03-16 07:25:00,
2013-03-16 02:30:00,57.7,53.5,29.97,SSE,163,0.0,0.0,86,0.00,,SKC,0.00,VWS V14.01,2013-03-16 07:30:00,
2013-03-16 02:35:00,57.6,53.5,29.96,SSE,163,0.0,2.0,86,0.00,,SKC,0.00,VWS V14.01,2013-03-16 07:35:00,
2013-03-16 02:40:00,57.6,53.8,29.96,SSE,163,0.0,3.0,87,0.00,,SKC,0.00,VWS V14.01,2013-03-16 07:40:00,
2013-03-16 02:45:00,57.6,53.8,29.96,SSE,163,2.0,4.0,87,0.00,,SKC,0.00,VWS V14.01,2013-03-16 07:45:00,
2013-03-16 02:50:00,57.7,53.9,29.96,SSE,163,0.0,0.0,87,0.00,,SKC,0.00,VWS V14.01,2013-03-16 07:50:00,
2013-03-16 02:55:00,57.8,54.3,29.96,SSE,163,0.0,3.0,88,0.00,,SKC,0.00,VWS V14.01,2013-03-16 07:55:00,
2013-03-16 03:00:00,57.9,54.4,29.96,SSE,163,2.0,5.0,88,0.00,,SKC,0.00,VWS V14.01,2013-03-16 08:00:00,
2013-03-16 03:05:00,58.0,54.5,29.95,SSE,163,0.0,5.0,88,0.00,,SKC,0.00,VWS V14.01,2013-03-16 08:05:00,
2013-03-16 03:10:00,58.1,54.6,29.95,SSE,163,0.0,3.0,88,0.00,,SKC,0.00,VWS V14.01,2013-03-16 08:10:00,
2013-03-16 03:15:00,58.1,54.6,29.95,SSE,163,0.0,7.0,88,0.00,,SKC,0.00,VWS V14.01,2013-03-16 08:15:00,
2013-03-16 03:20:00,58.1,54.6,29.95,SSE,163,0.0,0.0,88,0.00,,SKC,0.00,VWS V14.01,2013-03-16 08:20:00,
2013-03-16 03:25:00,58.1,54.6,29.95,SSE,163,0.0,1.0,88,0.00,,SKC,0.00,VWS V14.01,2013-03-16 08:25:00,
2013-03-16 03:30:00,58.1,54.6,29.95,SSE,163,0.0,0.0,88,0.00,,SKC,0.00,VWS V14.01,2013-03-16 08:30:00,
2013-03-16 03:35:00,58.0,54.8,29.95,SSE,163,0.0,1.0,89,0.00,,SKC,0.00,VWS V14.01,2013-03-16 08:35:00,
2013-03-16 03:40:00,58.0,54.8,29.94,SSE,163,0.0,1.0,89,0.00,,SKC,0.00,VWS V14.01,2013-03-16 08:40:00,
2013-03-16 03:45:00,57.9,54.7,29.94,SSE,163,0.0,1.0,89,0.00,,SKC,0.00,VWS V14.01,2013-03-16 08:45:00,
2013-03-16 03:50:00,57.8,54.6,29.94,SSE,163,0.0,0.0,89,0.00,,SKC,0.00,VWS V14.01,2013-03-16 08:50:00,
2013-03-16 03:55:00,57.7,54.5,29.94,SSE,163,0.0,0.0,89,0.00,,SKC,0.00,VWS V14.01,2013-03-16 08:55:00,
2013-03-16 04:00:00,57.7,54.5,29.94,SSE,163,0.0,0.0,89,0.00,,SKC,0.00,VWS V14.01,2013-03-16 09:00:00,
2013-03-16 04:05:00,57.6,54.4,29.93,SSE,163,0.0,0.0,89,0.00,,SKC,0.00,VWS V14.01,2013-03-16 09:05:00,
2013-03-16 04:10:00,57.5,54.3,29.93,SSE,163,0.0,0.0,89,0.00,,SKC,0.00,VWS V14.01,2013-03-16 09:10:00,
2013-03-16 04:15:00,57.4,54.2,29.93,SSE,163,0.0,0.0,89,0.00,,SKC,0.00,VWS V14.01,2013-03-16 09:15:00,
2013-03-16 04:20:00,57.2,54.3,29.93,SSE,163,0.0,0.0,90,0.00,,SKC,0.00,VWS V14.01,2013-03-16 09:20:00,
2013-03-16 04:25:00,57.1,54.2,29.93,SSE,163,0.0,0.0,90,0.00,,SKC,0.00,VWS V14.01,2013-03-16 09:25:00,
2013-03-16 04:30:00,57.0,54.1,29.92,SSE,163,0.0,0.0,90,0.00,,SKC,0.00,VWS V14.01,2013-03-16 09:30:00,
2013-03-16 04:35:00,56.8,53.9,29.92,SSE,163,0.0,0.0,90,0.00,,SKC,0.00,VWS V14.01,2013-03-16 09:35:00,
2013-03-16 04:40:00,56.7,53.8,29.92,SSE,163,0.0,0.0,90,0.00,,SKC,0.00,VWS V14.01,2013-03-16 09:40:00,
2013-03-16 04:45:00,56.6,53.7,29.92,SSE,163,0.0,0.0,90,0.00,,SKC,0.00,VWS V14.01,2013-03-16 09:45:00,
2013-03-16 04:50:00,56.5,53.9,29.92,SSE,163,0.0,0.0,91,0.00,,SKC,0.00,VWS V14.01,2013-03-16 09:50:00,
2013-03-16 04:55:00,56.4,53.8,29.92,SSE,163,0.0,0.0,91,0.00,,SKC,0.00,VWS V14.01,2013-03-16 09:55:00,
2013-03-16 05:00:00,56.3,53.7,29.92,SSE,163,0.0,0.0,91,0.00,,SKC,0.00,VWS V14.01,2013-03-16 10:00:00,
2013-03-16 05:05:00,56.1,53.5,29.92,SSE,163,0.0,0.0,91,0.00,,SKC,0.00,VWS V14.01,2013-03-16 10:05:00,
2013-03-16 05:10:00,56.0,53.4,29.91,SSE,163,0.0,0.0,91,0.00,,SKC,0.00,VWS V14.01,2013-03-16 10:10:00,
2013-03-16 05:15:00,55.8,53.2,29.91,SSE,163,0.0,0.0,91,0.00,,SKC,0.00,VWS V14.01,2013-03-16 10:15:00,
2013-03-16 05:20:00,55.6,53.0,29.91,SSE,163,0.0,0.0,91,0.00,,SKC,0.00,VWS V14.01,2013-03-16 10:20:00,
2013-03-16 05:25:00,55.4,52.8,29.91,SSE,163,0.0,0.0,91,0.00,,SKC,0.00,VWS V14.01,2013-03-16 10:25:00,
2013-03-16 05:30:00,55.3,52.7,29.91,SSE,163,0.0,0.0,91,0.00,,SKC,0.00,VWS V14.01,2013-03-16 10:30:00,
2013-03-16 05:34:00,55.2,52.9,29.91,SSE,163,0.0,0.0,92,0.00,,SKC,0.00,VWS V14.01,2013-03-16 10:34:00,
2013-03-16 05:39:00,55.1,52.8,29.91,SSE,163,0.0,0.0,92,0.00,,SKC,0.00,VWS V14.01,2013-03-16 10:39:00,
2013-03-16 05:40:00,55.2,52.9,29.91,SSE,163,0.0,0.0,92,0.00,,SKC,0.00,VWS V14.01,2013-03-16 10:40:00,
2013-03-16 05:44:00,55.0,52.7,29.91,SSE,163,0.0,0.0,92,0.00,,SKC,0.00,VWS V14.01,2013-03-16 10:44:00,
2013-03-16 05:49:00,55.0,52.7,29.91,SSE,163,0.0,0.0,92,0.00,,SKC,0.00,VWS V14.01,2013-03-16 10:49:00,
2013-03-16 05:50:00,55.0,52.7,29.91,SSE,163,0.0,0.0,92,0.00,,SKC,0.00,VWS V14.01,2013-03-16 10:50:00,
2013-03-16 05:54:00,54.8,52.5,29.91,SSE,163,0.0,0.0,92,0.00,,SKC,0.00,VWS V14.01,2013-03-16 10:54:00,
2013-03-16 05:59:00,54.7,52.4,29.91,SSE,163,0.0,0.0,92,0.00,,SKC,0.00,VWS V14.01,2013-03-16 10:59:00,
2013-03-16 06:00:00,54.8,52.5,29.91,SSE,163,0.0,0.0,92,0.00,,SKC,0.00,VWS V14.01,2013-03-16 11:00:00,
2013-03-16 06:04:00,54.7,52.4,29.91,SSE,163,0.0,0.0,92,0.00,,SKC,0.00,VWS V14.01,2013-03-16 11:04:00,
2013-03-16 06:09:00,54.6,52.3,29.90,SSE,163,0.0,0.0,92,0.00,,SKC,0.00,VWS V14.01,2013-03-16 11:09:00,
2013-03-16 06:10:00,54.6,52.3,29.91,SSE,163,0.0,0.0,92,0.00,,SKC,0.00,VWS V14.01,2013-03-16 11:10:00,
2013-03-16 06:14:00,54.4,52.1,29.90,SSE,163,0.0,0.0,92,0.00,,SKC,0.00,VWS V14.01,2013-03-16 11:14:00,
2013-03-16 06:19:00,54.2,51.9,29.90,SSE,163,0.0,0.0,92,0.00,,SKC,0.00,VWS V14.01,2013-03-16 11:19:00,
2013-03-16 06:20:00,54.3,52.0,29.90,SSE,163,0.0,0.0,92,0.00,,SKC,0.00,VWS V14.01,2013-03-16 11:20:00,
2013-03-16 06:24:00,54.0,51.7,29.90,SSE,163,0.0,0.0,92,0.00,,SKC,0.00,VWS V14.01,2013-03-16 11:24:00,
2013-03-16 06:29:00,53.8,51.5,29.90,SSE,163,0.0,0.0,92,0.00,,SKC,0.00,VWS V14.01,2013-03-16 11:29:00,
2013-03-16 06:30:00,53.9,51.6,29.90,SSE,163,0.0,0.0,92,0.00,,SKC,0.00,VWS V14.01,2013-03-16 11:30:00,
2013-03-16 06:34:00,53.6,51.3,29.90,SSE,163,0.0,0.0,92,0.00,,SKC,0.00,VWS V14.01,2013-03-16 11:34:00,
2013-03-16 06:39:00,53.5,51.2,29.90,SSE,163,0.0,0.0,92,0.00,,SKC,0.00,VWS V14.01,2013-03-16 11:39:00,
2013-03-16 06:40:00,53.6,51.3,29.90,SSE,163,0.0,0.0,92,0.00,,SKC,0.00,VWS V14.01,2013-03-16 11:40:00,
2013-03-16 06:44:00,53.3,51.0,29.90,SSE,163,0.0,0.0,92,0.00,,SKC,0.00,VWS V14.01,2013-03-16 11:44:00,
2013-03-16 06:49:00,53.2,51.2,29.90,SSE,163,0.0,0.0,93,0.00,,SKC,0.00,VWS V14.01,2013-03-16 11:49:00,
2013-03-16 06:50:00,53.2,50.9,29.90,SSE,163,0.0,0.0,92,0.00,,SKC,0.00,VWS V14.01,2013-03-16 11:50:00,
2013-03-16 06:54:00,53.3,51.3,29.90,SSE,163,0.0,0.0,93,0.00,,SKC,0.00,VWS V14.01,2013-03-16 11:54:00,
2013-03-16 06:59:00,53.3,51.3,29.90,SSE,163,0.0,0.0,93,0.00,,SKC,0.00,VWS V14.01,2013-03-16 11:59:00,
2013-03-16 07:00:00,53.3,51.3,29.91,SSE,163,0.0,0.0,93,0.00,,SKC,0.00,VWS V14.01,2013-03-16 12:00:00,
2013-03-16 07:04:00,53.1,51.1,29.90,SSE,163,0.0,0.0,93,0.00,,SKC,0.00,VWS V14.01,2013-03-16 12:04:00,
2013-03-16 07:09:00,52.8,50.5,29.91,SSE,163,0.0,0.0,92,0.00,,SKC,0.00,VWS V14.01,2013-03-16 12:09:00,
2013-03-16 07:10:00,53.0,51.0,29.90,SSE,163,0.0,0.0,93,0.00,,SKC,0.00,VWS V14.01,2013-03-16 12:10:00,
2013-03-16 07:14:00,52.6,50.3,29.91,SSE,163,0.0,0.0,92,0.00,,SKC,0.00,VWS V14.01,2013-03-16 12:14:00,
2013-03-16 07:19:00,52.3,50.0,29.90,SSE,163,0.0,0.0,92,0.00,,SKC,0.00,VWS V14.01,2013-03-16 12:19:00,
2013-03-16 07:20:00,52.4,50.2,29.90,SSE,163,0.0,0.0,92,0.00,,SKC,0.00,VWS V14.01,2013-03-16 12:20:00,
2013-03-16 07:24:00,52.1,49.8,29.90,SSE,163,0.0,0.0,92,0.00,,SKC,0.00,VWS V14.01,2013-03-16 12:24:00,
2013-03-16 07:29:00,52.0,50.0,29.91,SSE,163,0.0,0.0,93,0.00,,SKC,0.00,VWS V14.01,2013-03-16 12:29:00,
2013-03-16 07:30:00,52.1,50.1,29.90,SSE,163,0.0,0.0,93,0.00,,SKC,0.00,VWS V14.01,2013-03-16 12:30:00,
2013-03-16 07:34:00,51.9,49.9,29.91,SSE,163,0.0,0.0,93,0.00,,SKC,0.00,VWS V14.01,2013-03-16 12:34:00,
2013-03-16 07:39:00,51.8,49.8,29.91,SSE,163,0.0,0.0,93,0.00,,SKC,0.00,VWS V14.01,2013-03-16 12:39:00,
2013-03-16 07:40:00,51.9,49.9,29.91,SSE,163,0.0,0.0,93,0.00,,SKC,0.00,VWS V14.01,2013-03-16 12:40:00,
2013-03-16 07:44:00,51.7,49.8,29.91,SSE,163,0.0,0.0,93,0.00,,SKC,0.00,VWS V14.01,2013-03-16 12:44:00,
2013-03-16 07:49:00,51.6,49.7,29.91,SSE,163,0.0,0.0,93,0.00,,SKC,0.00,VWS V14.01,2013-03-16 12:49:00,
2013-03-16 07:50:00,51.6,49.7,29.91,SSE,163,0.0,0.0,93,0.00,,SKC,0.00,VWS V14.01,2013-03-16 12:50:00,
2013-03-16 07:54:00,51.6,49.7,29.91,SSE,163,0.0,0.0,93,0.00,,SKC,0.00,VWS V14.01,2013-03-16 12:54:00,
2013-03-16 07:59:00,51.8,50.1,29.91,SSE,163,0.0,0.0,94,0.00,,SKC,0.00,VWS V14.01,2013-03-16 12:59:00,
2013-03-16 08:00:00,51.7,50.0,29.91,SSE,163,0.0,0.0,94,0.00,,SKC,0.00,VWS V14.01,2013-03-16 13:00:00,
2013-03-16 08:04:00,51.9,50.2,29.91,SSE,163,0.0,0.0,94,0.00,,SKC,0.00,VWS V14.01,2013-03-16 13:04:00,
2013-03-16 08:09:00,52.5,51.1,29.91,SSE,163,0.0,0.0,95,0.00,,SKC,0.00,VWS V14.01,2013-03-16 13:09:00,
2013-03-16 08:10:00,52.1,50.4,29.91,SSE,163,0.0,0.0,94,0.00,,SKC,0.00,VWS V14.01,2013-03-16 13:10:00,
2013-03-16 08:14:00,53.3,52.2,29.91,SSE,163,0.0,0.0,96,0.00,,SKC,0.00,VWS V14.01,2013-03-16 13:14:00,
2013-03-16 08:19:00,54.0,52.9,29.91,SSE,163,0.0,0.0,96,0.00,,SKC,0.00,VWS V14.01,2013-03-16 13:19:00,
2013-03-16 08:20:00,53.7,52.6,29.91,SSE,163,0.0,0.0,96,0.00,,SKC,0.00,VWS V14.01,2013-03-16 13:20:00,
2013-03-16 08:24:00,54.5,53.4,29.91,SSE,163,0.0,0.0,96,0.00,,SKC,0.00,VWS V14.01,2013-03-16 13:24:00,
2013-03-16 08:29:00,54.9,53.8,29.91,SSE,163,0.0,0.0,96,0.00,,SKC,0.00,VWS V14.01,2013-03-16 13:29:00,
2013-03-16 08:30:00,54.7,53.6,29.91,SSE,163,0.0,0.0,96,0.00,,SKC,0.00,VWS V14.01,2013-03-16 13:30:00,
2013-03-16 08:34:00,55.3,54.2,29.91,SSE,163,0.0,0.0,96,0.00,,SKC,0.00,VWS V14.01,2013-03-16 13:34:00,
2013-03-16 08:39:00,55.7,54.6,29.91,SSE,163,0.0,0.0,96,0.00,,SKC,0.00,VWS V14.01,2013-03-16 13:39:00,
2013-03-16 08:40:00,55.4,54.3,29.91,SSE,163,0.0,0.0,96,0.00,,SKC,0.00,VWS V14.01,2013-03-16 13:40:00,
2013-03-16 08:44:00,56.0,54.9,29.91,SSE,163,0.0,0.0,96,0.00,,SKC,0.00,VWS V14.01,2013-03-16 13:44:00,
2013-03-16 08:49:00,56.3,55.2,29.91,SSE,163,0.0,0.0,96,0.00,,SKC,0.00,VWS V14.01,2013-03-16 13:49:00,
2013-03-16 08:50:00,56.1,55.0,29.91,SSE,163,0.0,0.0,96,0.00,,SKC,0.00,VWS V14.01,2013-03-16 13:50:00,
2013-03-16 08:54:00,56.5,55.4,29.91,SSE,163,0.0,3.0,96,0.00,,SKC,0.00,VWS V14.01,2013-03-16 13:54:00,
2013-03-16 08:59:00,56.7,55.6,29.92,SSE,163,0.0,0.0,96,0.00,,SKC,0.00,VWS V14.01,2013-03-16 13:59:00,
2013-03-16 09:00:00,56.6,55.5,29.91,SSE,163,0.0,3.0,96,0.00,,SKC,0.00,VWS V14.01,2013-03-16 14:00:00,
2013-03-16 09:04:00,56.9,55.8,29.92,SSE,163,0.0,3.0,96,0.00,,SKC,0.00,VWS V14.01,2013-03-16 14:04:00,
2013-03-16 09:09:00,57.3,56.2,29.92,SSE,163,0.0,2.0,96,0.00,,SKC,0.00,VWS V14.01,2013-03-16 14:09:00,
2013-03-16 09:10:00,57.1,56.0,29.92,SSE,163,2.0,3.0,96,0.00,,SKC,0.00,VWS V14.01,2013-03-16 14:10:00,
2013-03-16 09:14:00,57.5,56.4,29.92,SSE,163,0.0,2.0,96,0.00,,SKC,0.00,VWS V14.01,2013-03-16 14:14:00,
2013-03-16 09:19:00,57.8,56.7,29.92,SSE,163,0.0,0.0,96,0.00,,SKC,0.00,VWS V14.01,2013-03-16 14:19:00,
2013-03-16 09:20:00,57.6,56.5,29.92,SSE,163,0.0,2.0,96,0.00,,SKC,0.00,VWS V14.01,2013-03-16 14:20:00,
2013-03-16 09:24:00,58.0,56.9,29.92,SSE,163,0.0,0.0,96,0.00,,SKC,0.00,VWS V14.01,2013-03-16 14:24:00,
2013-03-16 09:29:00,58.2,57.1,29.92,SSE,163,0.0,0.0,96,0.00,,SKC,0.00,VWS V14.01,2013-03-16 14:29:00,
2013-03-16 09:30:00,58.1,57.0,29.92,SSE,163,0.0,3.0,96,0.00,,SKC,0.00,VWS V14.01,2013-03-16 14:30:00,
2013-03-16 09:34:00,58.4,57.3,29.92,SSE,163,0.0,6.0,96,0.00,,SKC,0.00,VWS V14.01,2013-03-16 14:34:00,
2013-03-16 09:39:00,58.6,57.5,29.92,SSE,163,0.0,0.0,96,0.00,,SKC,0.00,VWS V14.01,2013-03-16 14:39:00,
2013-03-16 09:40:00,58.5,57.4,29.92,SSE,163,0.0,6.0,96,0.00,,SKC,0.00,VWS V14.01,2013-03-16 14:40:00,
2013-03-16 09:44:00,58.9,57.8,29.92,SSE,163,0.0,0.0,96,0.00,,SKC,0.00,VWS V14.01,2013-03-16 14:44:00,
2013-03-16 09:49:00,59.2,58.1,29.92,SSE,163,1.0,3.0,96,0.00,,SKC,0.00,VWS V14.01,2013-03-16 14:49:00,
2013-03-16 09:50:00,59.0,57.9,29.92,SSE,163,0.0,0.0,96,0.00,,SKC,0.00,VWS V14.01,2013-03-16 14:50:00,
2013-03-16 09:54:00,59.6,58.5,29.92,SSE,165,0.0,6.0,96,0.00,,SKC,0.00,VWS V14.01,2013-03-16 14:54:00,
2013-03-16 09:59:00,60.0,58.9,29.92,SSE,165,0.0,6.0,96,0.00,,SKC,0.00,VWS V14.01,2013-03-16 14:59:00,
2013-03-16 10:00:00,59.8,58.7,29.92,SSE,165,4.0,6.0,96,0.00,,SKC,0.00,VWS V14.01,2013-03-16 15:00:00,
2013-03-16 10:04:00,60.5,59.4,29.92,South,182,3.0,10.0,96,0.00,,SKC,0.00,VWS V14.01,2013-03-16 15:04:00,
2013-03-16 10:09:00,61.1,59.7,29.92,SSW,200,0.0,8.0,95,0.00,,SKC,0.00,VWS V14.01,2013-03-16 15:09:00,
2013-03-16 10:10:00,60.8,59.4,29.92,SSW,194,0.0,10.0,95,0.00,,SKC,0.00,VWS V14.01,2013-03-16 15:10:00,
2013-03-16 10:14:00,61.7,59.7,29.92,SSE,161,0.0,14.0,93,0.00,,SKC,0.00,VWS V14.01,2013-03-16 15:14:00,
2013-03-16 10:19:00,62.5,59.8,29.92,South,172,1.0,7.0,91,0.00,,SKC,0.00,VWS V14.01,2013-03-16 15:19:00,
2013-03-16 10:20:00,62.0,59.7,29.92,South,178,0.0,14.0,92,0.00,,SKC,0.00,VWS V14.01,2013-03-16 15:20:00,
2013-03-16 10:24:00,63.5,59.9,29.92,SSW,199,6.0,12.0,88,0.00,,SKC,0.00,VWS V14.01,2013-03-16 15:24:00,
2013-03-16 10:29:00,64.5,59.6,29.92,South,188,6.0,11.0,84,0.00,,SKC,0.00,VWS V14.01,2013-03-16 15:29:00,
2013-03-16 10:30:00,63.9,59.6,29.92,South,172,2.0,12.0,86,0.00,,SKC,0.00,VWS V14.01,2013-03-16 15:30:00,
2013-03-16 10:34:00,65.2,59.9,29.92,SSW,207,2.0,18.0,83,0.00,,SKC,0.00,VWS V14.01,2013-03-16 15:34:00,
2013-03-16 10:39:00,66.1,60.1,29.92,South,183,3.0,13.0,81,0.00,,SKC,0.00,VWS V14.01,2013-03-16 15:39:00,
2013-03-16 10:40:00,65.6,60.0,29.92,SSW,193,5.0,18.0,82,0.00,,SKC,0.00,VWS V14.01,2013-03-16 15:40:00,
2013-03-16 10:44:00,66.7,60.0,29.92,South,183,5.0,13.0,79,0.00,,SKC,0.00,VWS V14.01,2013-03-16 15:44:00,
2013-03-16 10:49:00,67.2,60.1,29.92,SSW,210,2.0,12.0,78,0.00,,SKC,0.00,VWS V14.01,2013-03-16 15:49:00,
2013-03-16 10:50:00,66.9,60.2,29.92,South,178,7.0,13.0,79,0.00,,SKC,0.00,VWS V14.01,2013-03-16 15:50:00,
2013-03-16 10:54:00,67.8,60.0,29.91,SSW,210,4.0,12.0,76,0.00,,SKC,0.00,VWS V14.01,2013-03-16 15:54:00,
2013-03-16 10:59:00,68.6,60.4,29.91,SSW,213,2.0,10.0,75,0.00,,SKC,0.00,VWS V14.01,2013-03-16 15:59:00,
2013-03-16 11:00:00,68.1,60.3,29.91,SSW,209,10.0,12.0,76,0.00,,SKC,0.00,VWS V14.01,2013-03-16 16:00:00,
2013-03-16 11:04:00,69.4,60.4,29.91,SW,220,10.0,14.0,73,0.00,,SKC,0.00,VWS V14.01,2013-03-16 16:04:00,
2013-03-16 11:09:00,69.8,59.6,29.91,SSW,198,2.0,15.0,70,0.00,,SKC,0.00,VWS V14.01,2013-03-16 16:09:00,
2013-03-16 11:10:00,69.7,59.9,29.91,SSW,208,6.0,14.0,71,0.00,,SKC,0.00,VWS V14.01,2013-03-16 16:10:00,
2013-03-16 11:14:00,70.3,60.1,29.91,SW,223,6.0,17.0,70,0.00,,SKC,0.00,VWS V14.01,2013-03-16 16:14:00,
2013-03-16 11:19:00,70.6,60.0,29.90,SSW,212,7.0,11.0,69,0.00,,SKC,0.00,VWS V14.01,2013-03-16 16:19:00,
2013-03-16 11:20:00,70.5,59.8,29.91,SSW,201,9.0,17.0,69,0.00,,SKC,0.00,VWS V14.01,2013-03-16 16:20:00,
2013-03-16 11:24:00,71.0,60.3,29.90,SW,215,12.0,12.0,69,0.00,,SKC,0.00,VWS V14.01,2013-03-16 16:24:00,
2013-03-16 11:29:00,71.2,60.1,29.90,SSW,197,8.0,9.0,68,0.00,,SKC,0.00,VWS V14.01,2013-03-16 16:29:00,
2013-03-16 11:30:00,71.1,60.0,29.90,SSW,209,4.0,14.0,68,0.00,,SKC,0.00,VWS V14.01,2013-03-16 16:30:00,
2013-03-16 11:34:00,71.9,60.4,29.90,South,178,8.0,9.0,67,0.00,,SKC,0.00,VWS V14.01,2013-03-16 16:34:00,
2013-03-16 11:39:00,72.5,60.1,29.90,SSE,156,3.0,12.0,65,0.00,,SKC,0.00,VWS V14.01,2013-03-16 16:39:00,
2013-03-16 11:40:00,72.2,60.2,29.90,SSW,200,2.0,16.0,66,0.00,,SKC,0.00,VWS V14.01,2013-03-16 16:40:00,
2013-03-16 11:44:00,73.0,60.1,29.90,SSW,205,6.0,12.0,64,0.00,,SKC,0.00,VWS V14.01,2013-03-16 16:44:00,
2013-03-16 11:49:00,73.4,60.0,29.90,SW,223,10.0,16.0,63,0.00,,SKC,0.00,VWS V14.01,2013-03-16 16:49:00,
2013-03-16 11:50:00,73.2,59.9,29.90,SW,217,6.0,12.0,63,0.00,,SKC,0.00,VWS V14.01,2013-03-16 16:50:00,
2013-03-16 11:54:00,73.9,60.1,29.90,SSE,157,2.0,16.0,62,0.00,,SKC,0.00,VWS V14.01,2013-03-16 16:54:00,
2013-03-16 11:59:00,74.4,60.5,29.90,SW,217,7.0,12.0,62,0.00,,SKC,0.00,VWS V14.01,2013-03-16 16:59:00,
2013-03-16 12:00:00,74.1,60.3,29.90,SSW,201,3.0,16.0,62,0.00,,SKC,0.00,VWS V14.01,2013-03-16 17:00:00,
2013-03-16 12:04:00,74.8,60.5,29.90,SSW,201,0.0,12.0,61,0.00,,SKC,0.00,VWS V14.01,2013-03-16 17:04:00,
2013-03-16 12:09:00,75.6,60.3,29.90,SSW,210,6.0,10.0,59,0.00,,SKC,0.00,VWS V14.01,2013-03-16 17:09:00,
2013-03-16 12:10:00,75.1,60.8,29.89,South,189,0.0,12.0,61,0.00,,SKC,0.00,VWS V14.01,2013-03-16 17:10:00,
2013-03-16 12:14:00,76.1,59.8,29.89,SSE,161,9.0,13.0,57,0.00,,SKC,0.00,VWS V14.01,2013-03-16 17:14:00,
2013-03-16 12:19:00,76.6,59.8,29.89,South,178,7.0,9.0,56,0.00,,SKC,0.00,VWS V14.01,2013-03-16 17:19:00,
2013-03-16 12:20:00,76.3,60.0,29.89,SSE,165,4.0,13.0,57,0.00,,SKC,0.00,VWS V14.01,2013-03-16 17:20:00,
2013-03-16 12:24:00,76.7,59.3,29.89,South,172,1.0,12.0,55,0.00,,SKC,0.00,VWS V14.01,2013-03-16 17:24:00,
2013-03-16 12:29:00,76.9,60.0,29.89,South,175,5.0,9.0,56,0.00,,SKC,0.00,VWS V14.01,2013-03-16 17:29:00,
2013-03-16 12:30:00,76.8,59.9,29.89,SSE,155,0.0,16.0,56,0.00,,SKC,0.00,VWS V14.01,2013-03-16 17:30:00,
2013-03-16 12:34:00,77.0,59.6,29.89,SW,223,6.0,12.0,55,0.00,,SKC,0.00,VWS V14.01,2013-03-16 17:34:00,
2013-03-16 12:39:00,77.1,60.2,29.89,SSW,201,4.0,9.0,56,0.00,,SKC,0.00,VWS V14.01,2013-03-16 17:39:00,
2013-03-16 12:40:00,77.0,59.6,29.89,SSW,208,9.0,12.0,55,0.00,,SKC,0.00,VWS V14.01,2013-03-16 17:40:00,
2013-03-16 12:44:00,77.4,59.5,29.88,SSE,167,5.0,15.0,54,0.00,,SKC,0.00,VWS V14.01,2013-03-16 17:44:00,
2013-03-16 12:49:00,77.6,60.2,29.88,South,187,4.0,11.0,55,0.00,,SKC,0.00,VWS V14.01,2013-03-16 17:49:00,
2013-03-16 12:50:00,77.5,59.6,29.88,South,169,4.0,15.0,54,0.00,,SKC,0.00,VWS V14.01,2013-03-16 17:50:00,
2013-03-16 12:54:00,77.8,59.8,29.87,South,169,0.0,14.0,54,0.00,,SKC,0.00,VWS V14.01,2013-03-16 17:54:00,
2013-03-16 12:59:00,78.1,60.6,29.87,SW,215,5.0,10.0,55,0.00,,SKC,0.00,VWS V14.01,2013-03-16 17:59:00,
2013-03-16 13:00:00,77.9,59.9,29.87,SSE,166,0.0,14.0,54,0.00,,SKC,0.00,VWS V14.01,2013-03-16 18:00:00,
2013-03-16 13:04:00,78.3,60.3,29.86,South,176,8.0,10.0,54,0.00,,SKC,0.00,VWS V14.01,2013-03-16 18:04:00,
2013-03-16 13:09:00,78.7,60.7,29.86,South,185,0.0,9.0,54,0.00,,SKC,0.00,VWS V14.01,2013-03-16 18:09:00,
2013-03-16 13:10:00,78.4,60.4,29.86,South,173,0.0,10.0,54,0.00,,SKC,0.00,VWS V14.01,2013-03-16 18:10:00,
2013-03-16 13:14:00,79.1,60.0,29.86,SSE,167,4.0,11.0,52,0.00,,SKC,0.00,VWS V14.01,2013-03-16 18:14:00,
2013-03-16 13:19:00,79.5,60.3,29.85,South,169,3.0,13.0,52,0.00,,SKC,0.00,VWS V14.01,2013-03-16 18:19:00,
2013-03-16 13:20:00,79.3,60.2,29.85,SSE,165,8.0,14.0,52,0.00,,SKC,0.00,VWS V14.01,2013-03-16 18:20:00,
2013-03-16 13:24:00,79.8,59.5,29.85,SSW,194,1.0,13.0,50,0.00,,SKC,0.00,VWS V14.01,2013-03-16 18:24:00,
2013-03-16 13:29:00,80.1,58.7,29.85,SW,215,0.0,12.0,48,0.00,,SKC,0.00,VWS V14.01,2013-03-16 18:29:00,
2013-03-16 13:30:00,79.9,59.6,29.85,South,191,1.0,13.0,50,0.00,,SKC,0.00,VWS V14.01,2013-03-16 18:30:00,
2013-03-16 13:34:00,80.5,58.4,29.84,SSW,201,1.0,12.0,47,0.00,,SKC,0.00,VWS V14.01,2013-03-16 18:34:00,
2013-03-16 13:39:00,80.7,58.6,29.84,SSE,151,4.0,9.0,47,0.00,,SKC,0.00,VWS V14.01,2013-03-16 18:39:00,
2013-03-16 13:40:00,80.6,57.9,29.84,South,174,5.0,13.0,46,0.00,,SKC,0.00,VWS V14.01,2013-03-16 18:40:00,
2013-03-16 13:44:00,80.8,58.1,29.83,SSE,166,0.0,14.0,46,0.00,,SKC,0.00,VWS V14.01,2013-03-16 18:44:00,
2013-03-16 13:49:00,80.9,57.6,29.83,SSW,202,4.0,9.0,45,0.00,,SKC,0.00,VWS V14.01,2013-03-16 18:49:00,
2013-03-16 13:50:00,80.9,58.2,29.83,SW,221,5.0,14.0,46,0.00,,SKC,0.00,VWS V14.01,2013-03-16 18:50:00,
2013-03-16 13:54:00,81.0,59.5,29.83,South,178,2.0,10.0,48,0.00,,SKC,0.00,VWS V14.01,2013-03-16 18:54:00,
2013-03-16 13:59:00,81.3,58.6,29.83,South,174,1.0,11.0,46,0.00,,SKC,0.00,VWS V14.01,2013-03-16 18:59:00,
2013-03-16 14:00:00,81.1,58.4,29.83,South,175,2.0,10.0,46,0.00,,SKC,0.00,VWS V14.01,2013-03-16 19:00:00,
2013-03-16 14:04:00,81.7,57.7,29.83,South,180,3.0,11.0,44,0.00,,SKC,0.00,VWS V14.01,2013-03-16 19:04:00,
2013-03-16 14:09:00,81.9,57.9,29.82,South,186,0.0,12.0,44,0.00,,SKC,0.00,VWS V14.01,2013-03-16 19:09:00,
2013-03-16 14:10:00,81.7,57.0,29.82,SSE,165,7.0,11.0,43,0.00,,SKC,0.00,VWS V14.01,2013-03-16 19:10:00,
2013-03-16 14:14:00,82.2,56.8,29.82,SW,222,7.0,13.0,42,0.00,,SKC,0.00,VWS V14.01,2013-03-16 19:14:00,
2013-03-16 14:19:00,82.6,57.9,29.81,SSE,167,3.0,7.0,43,0.00,,SKC,0.00,VWS V14.01,2013-03-16 19:19:00,
2013-03-16 14:20:00,82.3,57.6,29.82,South,184,0.0,13.0,43,0.00,,SKC,0.00,VWS V14.01,2013-03-16 19:20:00,
2013-03-16 14:24:00,82.8,57.4,29.81,South,171,4.0,12.0,42,0.00,,SKC,0.00,VWS V14.01,2013-03-16 19:24:00,
2013-03-16 14:29:00,82.9,54.7,29.81,SW,215,0.0,14.0,38,0.00,,SKC,0.00,VWS V14.01,2013-03-16 19:29:00,
2013-03-16 14:30:00,82.8,57.4,29.81,SSE,161,5.0,12.0,42,0.00,,SKC,0.00,VWS V14.01,2013-03-16 19:30:00,
2013-03-16 14:34:00,82.8,55.3,29.80,SSE,155,6.0,14.0,39,0.00,,SKC,0.00,VWS V14.01,2013-03-16 19:34:00,
2013-03-16 14:39:00,82.9,54.0,29.80,SSE,151,9.0,12.0,37,0.00,,SKC,0.00,VWS V14.01,2013-03-16 19:39:00,
2013-03-16 14:40:00,82.9,56.1,29.80,SSE,167,0.0,14.0,40,0.00,,SKC,0.00,VWS V14.01,2013-03-16 19:40:00,
2013-03-16 14:44:00,83.1,52.6,29.79,SSE,149,2.0,12.0,35,0.00,,SKC,0.00,VWS V14.01,2013-03-16 19:44:00,
2013-03-16 14:49:00,83.3,53.6,29.79,South,188,4.0,7.0,36,0.00,,SKC,0.00,VWS V14.01,2013-03-16 19:49:00,
2013-03-16 14:50:00,83.2,52.7,29.79,SSE,161,1.0,13.0,35,0.00,,SKC,0.00,VWS V14.01,2013-03-16 19:50:00,
2013-03-16 14:54:00,83.7,53.9,29.79,South,189,2.0,11.0,36,0.00,,SKC,0.00,VWS V14.01,2013-03-16 19:54:00,
2013-03-16 14:59:00,83.8,54.8,29.78,SSE,158,9.0,15.0,37,0.00,,SKC,0.00,VWS V14.01,2013-03-16 19:59:00,
2013-03-16 15:00:00,83.8,53.3,29.78,South,187,7.0,11.0,35,0.00,,SKC,0.00,VWS V14.01,2013-03-16 20:00:00,
2013-03-16 15:04:00,83.8,54.0,29.78,SSW,199,2.0,15.0,36,0.00,,SKC,0.00,VWS V14.01,2013-03-16 20:04:00,
2013-03-16 15:09:00,83.8,56.9,29.77,SSE,161,0.0,13.0,40,0.00,,SKC,0.00,VWS V14.01,2013-03-16 20:09:00,
2013-03-16 15:10:00,83.8,55.5,29.78,SSE,158,6.0,15.0,38,0.00,,SKC,0.00,VWS V14.01,2013-03-16 20:10:00,
2013-03-16 15:14:00,83.8,56.9,29.77,SSE,163,4.0,13.0,40,0.00,,SKC,0.00,VWS V14.01,2013-03-16 20:14:00,
2013-03-16 15:19:00,83.9,57.0,29.77,SSE,165,6.0,10.0,40,0.00,,SKC,0.00,VWS V14.01,2013-03-16 20:19:00,
2013-03-16 15:20:00,83.8,56.9,29.77,South,169,0.0,13.0,40,0.00,,SKC,0.00,VWS V14.01,2013-03-16 20:20:00,
2013-03-16 15:24:00,84.1,55.0,29.77,South,182,6.0,10.0,37,0.00,,SKC,0.00,VWS V14.01,2013-03-16 20:24:00,
2013-03-16 15:29:00,84.2,54.4,29.77,SW,219,3.0,11.0,36,0.00,,SKC,0.00,VWS V14.01,2013-03-16 20:29:00,
2013-03-16 15:30:00,84.1,54.3,29.77,SSE,157,4.0,14.0,36,0.00,,SKC,0.00,VWS V14.01,2013-03-16 20:30:00,
2013-03-16 15:34:00,84.3,56.7,29.77,SW,219,2.0,12.0,39,0.00,,SKC,0.00,VWS V14.01,2013-03-16 20:34:00,
2013-03-16 15:39:00,84.4,56.0,29.76,SSE,166,5.0,13.0,38,0.00,,SKC,0.00,VWS V14.01,2013-03-16 20:39:00,
2013-03-16 15:40:00,84.4,56.8,29.76,SW,217,0.0,12.0,39,0.00,,SKC,0.00,VWS V14.01,2013-03-16 20:40:00,
2013-03-16 15:44:00,84.5,56.8,29.76,SSE,159,0.0,13.0,39,0.00,,SKC,0.00,VWS V14.01,2013-03-16 20:44:00,
2013-03-16 15:49:00,84.6,56.9,29.75,South,169,9.0,9.0,39,0.00,,SKC,0.00,VWS V14.01,2013-03-16 20:49:00,
2013-03-16 15:50:00,84.5,57.5,29.76,South,169,8.0,13.0,40,0.00,,SKC,0.00,VWS V14.01,2013-03-16 20:50:00,
2013-03-16 15:54:00,84.7,56.3,29.75,South,175,0.0,11.0,38,0.00,,SKC,0.00,VWS V14.01,2013-03-16 20:54:00,
2013-03-16 15:59:00,84.9,56.5,29.75,SSE,167,2.0,11.0,38,0.00,,SKC,0.00,VWS V14.01,2013-03-16 20:59:00,
2013-03-16 16:00:00,84.8,56.4,29.75,South,170,4.0,11.0,38,0.00,,SKC,0.00,VWS V14.01,2013-03-16 21:00:00,
2013-03-16 16:04:00,84.9,55.8,29.75,SSE,156,3.0,12.0,37,0.00,,SKC,0.00,VWS V14.01,2013-03-16 21:04:00,
2013-03-16 16:09:00,85.0,56.6,29.75,SSE,162,9.0,10.0,38,0.00,,SKC,0.00,VWS V14.01,2013-03-16 21:09:00,
2013-03-16 16:10:00,84.9,56.5,29.75,SSE,157,0.0,12.0,38,0.00,,SKC,0.00,VWS V14.01,2013-03-16 21:10:00,
2013-03-16 16:14:00,85.2,56.0,29.75,SSE,161,0.0,10.0,37,0.00,,SKC,0.00,VWS V14.01,2013-03-16 21:14:00,
2013-03-16 16:19:00,85.6,56.4,29.74,SSE,154,12.0,12.0,37,0.00,,SKC,0.00,VWS V14.01,2013-03-16 21:19:00,
2013-03-16 16:20:00,85.3,56.8,29.74,South,169,0.0,10.0,38,0.00,,SKC,0.00,VWS V14.01,2013-03-16 21:20:00,
2013-03-16 16:24:00,85.5,54.8,29.74,SSE,159,1.0,15.0,35,0.00,,SKC,0.00,VWS V14.01,2013-03-16 21:24:00,
2013-03-16 16:29:00,85.3,54.6,29.74,SSE,148,5.0,10.0,35,0.00,,SKC,0.00,VWS V14.01,2013-03-16 21:29:00,
2013-03-16 16:30:00,85.4,54.7,29.74,SSE,167,3.0,15.0,35,0.00,,SKC,0.00,VWS V14.01,2013-03-16 21:30:00,
2013-03-16 16:34:00,85.2,54.5,29.74,SSE,153,3.0,15.0,35,0.00,,SKC,0.00,VWS V14.01,2013-03-16 21:34:00,
2013-03-16 16:39:00,85.1,54.4,29.74,SSE,154,0.0,9.0,35,0.00,,SKC,0.00,VWS V14.01,2013-03-16 21:39:00,
2013-03-16 16:40:00,85.1,55.2,29.74,SSE,155,0.0,15.0,36,0.00,,SKC,0.00,VWS V14.01,2013-03-16 21:40:00,
2013-03-16 16:44:00,85.2,52.9,29.74,South,175,2.0,15.0,33,0.00,,SKC,0.00,VWS V14.01,2013-03-16 21:44:00,
2013-03-16 16:49:00,85.2,55.3,29.74,SSE,167,4.0,9.0,36,0.00,,SKC,0.00,VWS V14.01,2013-03-16 21:49:00,
2013-03-16 16:50:00,85.2,55.3,29.74,South,169,2.0,15.0,36,0.00,,SKC,0.00,VWS V14.01,2013-03-16 21:50:00,
2013-03-16 16:54:00,85.3,55.3,29.73,South,179,1.0,9.0,36,0.00,,SKC,0.00,VWS V14.01,2013-03-16 21:54:00,
2013-03-16 16:59:00,85.6,54.0,29.73,South,181,0.0,8.0,34,0.00,,SKC,0.00,VWS V14.01,2013-03-16 21:59:00,
2013-03-16 17:00:00,85.5,54.0,29.73,South,169,3.0,12.0,34,0.00,,SKC,0.00,VWS V14.01,2013-03-16 22:00:00,
2013-03-16 17:04:00,85.8,54.2,29.73,South,178,2.0,16.0,34,0.00,,SKC,0.00,VWS V14.01,2013-03-16 22:04:00,
2013-03-16 17:09:00,85.7,53.3,29.73,SSE,165,9.0,13.0,33,0.00,,SKC,0.00,VWS V14.01,2013-03-16 22:09:00,
2013-03-16 17:10:00,85.7,53.3,29.73,SSE,158,3.0,16.0,33,0.00,,SKC,0.00,VWS V14.01,2013-03-16 22:10:00,
2013-03-16 17:14:00,85.6,54.0,29.73,SSE,167,3.0,13.0,34,0.00,,SKC,0.00,VWS V14.01,2013-03-16 22:14:00,
2013-03-16 17:19:00,85.4,54.7,29.73,SE,144,4.0,4.0,35,0.00,,SKC,0.00,VWS V14.01,2013-03-16 22:19:00,
2013-03-16 17:20:00,85.5,54.8,29.73,SSE,167,2.0,13.0,35,0.00,,SKC,0.00,VWS V14.01,2013-03-16 22:20:00,
2013-03-16 17:24:00,85.4,53.9,29.73,South,170,3.0,12.0,34,0.00,,SKC,0.00,VWS V14.01,2013-03-16 22:24:00,
2013-03-16 17:29:00,85.2,54.5,29.72,SSE,163,4.0,7.0,35,0.00,,SKC,0.00,VWS V14.01,2013-03-16 22:29:00,
2013-03-16 17:30:00,85.3,53.8,29.73,SSE,161,3.0,13.0,34,0.00,,SKC,0.00,VWS V14.01,2013-03-16 22:30:00,
2013-03-16 17:34:00,85.3,54.6,29.72,SSE,162,10.0,14.0,35,0.00,,SKC,0.00,VWS V14.01,2013-03-16 22:34:00,
2013-03-16 17:39:00,85.3,53.8,29.72,SSE,165,5.0,9.0,34,0.00,,SKC,0.00,VWS V14.01,2013-03-16 22:39:00,
2013-03-16 17:40:00,85.3,54.6,29.72,SSE,148,7.0,14.0,35,0.00,,SKC,0.00,VWS V14.01,2013-03-16 22:40:00,
2013-03-16 17:44:00,85.3,53.8,29.72,SSE,162,10.0,10.0,34,0.00,,SKC,0.00,VWS V14.01,2013-03-16 22:44:00,
2013-03-16 17:49:00,85.2,53.7,29.72,SSE,154,0.0,13.0,34,0.00,,SKC,0.00,VWS V14.01,2013-03-16 22:49:00,
2013-03-16 17:50:00,85.3,53.8,29.72,SSE,156,1.0,10.0,34,0.00,,SKC,0.00,VWS V14.01,2013-03-16 22:50:00,
2013-03-16 17:54:00,85.2,54.5,29.73,SSE,163,0.0,13.0,35,0.00,,SKC,0.00,VWS V14.01,2013-03-16 22:54:00,
2013-03-16 17:59:00,85.3,54.6,29.72,SSE,167,6.0,8.0,35,0.00,,SKC,0.00,VWS V14.01,2013-03-16 22:59:00,
2013-03-16 18:00:00,85.2,54.5,29.73,SSE,161,1.0,13.0,35,0.00,,SKC,0.00,VWS V14.01,2013-03-16 23:00:00,
2013-03-16 18:04:00,85.2,53.7,29.72,South,172,3.0,11.0,34,0.00,,SKC,0.00,VWS V14.01,2013-03-16 23:04:00,
2013-03-16 18:09:00,85.0,54.3,29.72,SSE,159,0.0,9.0,35,0.00,,SKC,0.00,VWS V14.01,2013-03-16 23:09:00,
2013-03-16 18:10:00,85.1,54.4,29.72,South,172,0.0,11.0,35,0.00,,SKC,0.00,VWS V14.01,2013-03-16 23:10:00,
2013-03-16 18:14:00,84.6,54.0,29.72,South,177,0.0,13.0,35,0.00,,SKC,0.00,VWS V14.01,2013-03-16 23:14:00,
2013-03-16 18:19:00,84.1,54.3,29.72,SSE,156,3.0,8.0,36,0.00,,SKC,0.00,VWS V14.01,2013-03-16 23:19:00,
2013-03-16 18:20:00,84.3,54.5,29.72,SSE,167,7.0,13.0,36,0.00,,SKC,0.00,VWS V14.01,2013-03-16 23:20:00,
2013-03-16 18:24:00,83.8,55.5,29.72,SSE,158,1.0,11.0,38,0.00,,SKC,0.00,VWS V14.01,2013-03-16 23:24:00,
2013-03-16 18:29:00,83.5,55.2,29.72,SSE,158,3.0,11.0,38,0.00,,SKC,0.00,VWS V14.01,2013-03-16 23:29:00,
2013-03-16 18:30:00,83.7,55.4,29.72,SSE,166,5.0,15.0,38,0.00,,SKC,0.00,VWS V14.01,2013-03-16 23:30:00,
2013-03-16 18:34:00,83.3,59.1,29.72,SSE,160,5.0,12.0,44,0.00,,SKC,0.00,VWS V14.01,2013-03-16 23:34:00,
2013-03-16 18:39:00,82.5,60.3,29.72,SE,144,1.0,12.0,47,0.00,,SKC,0.00,VWS V14.01,2013-03-16 23:39:00,
2013-03-16 18:40:00,83.0,60.1,29.72,SE,141,10.0,12.0,46,0.00,,SKC,0.00,VWS V14.01,2013-03-16 23:40:00,
2013-03-16 18:44:00,81.6,61.2,29.72,ESE,110,2.0,13.0,50,0.00,,SKC,0.00,VWS V14.01,2013-03-16 23:44:00,
2013-03-16 18:49:00,80.7,60.9,29.72,SSE,167,11.0,13.0,51,0.00,,SKC,0.00,VWS V14.01,2013-03-16 23:49:00,
2013-03-16 18:50:00,81.2,61.4,29.72,SE,129,0.0,13.0,51,0.00,,SKC,0.00,VWS V14.01,2013-03-16 23:50:00,
2013-03-16 18:54:00,80.1,62.0,29.73,SE,140,1.0,13.0,54,0.00,,SKC,0.00,VWS V14.01,2013-03-16 23:54:00,
2013-03-16 18:59:00,79.4,61.8,29.73,SSE,168,7.0,13.0,55,0.00,,SKC,0.00,VWS V14.01,2013-03-16 23:59:00,
2013-03-16 19:00:00,79.7,61.6,29.73,SSE,149,1.0,13.0,54,0.00,,SKC,0.00,VWS V14.01,2013-03-17 00:00:00,
2013-03-16 19:04:00,79.0,61.5,29.73,SSE,159,0.0,13.0,55,0.00,,SKC,0.00,VWS V14.01,2013-03-17 00:04:00,
2013-03-16 19:09:00,78.5,62.0,29.73,SSE,163,4.0,6.0,57,0.00,,SKC,0.00,VWS V14.01,2013-03-17 00:09:00,
2013-03-16 19:10:00,78.8,61.8,29.73,SSE,165,3.0,18.0,56,0.00,,SKC,0.00,VWS V14.01,2013-03-17 00:10:00,
2013-03-16 19:14:00,77.9,62.0,29.73,SSE,150,3.0,10.0,58,0.00,,SKC,0.00,VWS V14.01,2013-03-17 00:14:00,
2013-03-16 19:19:00,77.4,62.0,29.74,South,177,0.0,12.0,59,0.00,,SKC,0.00,VWS V14.01,2013-03-17 00:19:00,
2013-03-16 19:20:00,77.6,61.7,29.74,South,169,6.0,16.0,58,0.00,,SKC,0.00,VWS V14.01,2013-03-17 00:20:00,
2013-03-16 19:24:00,76.9,62.0,29.74,SSE,165,5.0,14.0,60,0.00,,SKC,0.00,VWS V14.01,2013-03-17 00:24:00,
2013-03-16 19:29:00,76.5,62.1,29.74,SSE,159,2.0,14.0,61,0.00,,SKC,0.00,VWS V14.01,2013-03-17 00:29:00,
2013-03-16 19:30:00,76.7,62.2,29.74,SE,134,5.0,21.0,61,0.00,,SKC,0.00,VWS V14.01,2013-03-17 00:30:00,
2013-03-16 19:34:00,76.1,62.2,29.74,SE,146,0.0,14.0,62,0.00,,SKC,0.00,VWS V14.01,2013-03-17 00:34:00,
2013-03-16 19:39:00,75.7,62.2,29.74,SSE,149,2.0,17.0,63,0.00,,SKC,0.00,VWS V14.01,2013-03-17 00:39:00,
2013-03-16 19:40:00,75.9,62.0,29.74,SSE,160,1.0,14.0,62,0.00,,SKC,0.00,VWS V14.01,2013-03-17 00:40:00,
2013-03-16 19:44:00,75.4,61.9,29.75,SSE,150,4.0,17.0,63,0.00,,SKC,0.00,VWS V14.01,2013-03-17 00:44:00,
2013-03-16 19:49:00,74.9,62.3,29.75,SSE,159,3.0,12.0,65,0.00,,SKC,0.00,VWS V14.01,2013-03-17 00:49:00,
2013-03-16 19:50:00,75.2,62.2,29.75,South,182,4.0,17.0,64,0.00,,SKC,0.00,VWS V14.01,2013-03-17 00:50:00,
2013-03-16 19:54:00,74.5,62.0,29.75,SSE,153,9.0,12.0,65,0.00,,SKC,0.00,VWS V14.01,2013-03-17 00:54:00,
2013-03-16 19:59:00,74.2,62.1,29.76,SSE,159,2.0,12.0,66,0.00,,SKC,0.00,VWS V14.01,2013-03-17 00:59:00,
2013-03-16 20:00:00,74.4,61.9,29.75,SSE,154,0.0,12.0,65,0.00,,SKC,0.00,VWS V14.01,2013-03-17 01:00:00,
2013-03-16 20:04:00,73.8,61.7,29.75,SSE,158,2.0,12.0,66,0.00,,SKC,0.00,VWS V14.01,2013-03-17 01:04:00,
2013-03-16 20:09:00,73.5,61.9,29.76,South,171,2.0,7.0,67,0.00,,SKC,0.00,VWS V14.01,2013-03-17 01:09:00,
2013-03-16 20:10:00,73.7,62.1,29.75,South,173,1.0,13.0,67,0.00,,SKC,0.00,VWS V14.01,2013-03-17 01:10:00,
2013-03-16 20:14:00,73.2,62.0,29.76,SE,132,4.0,8.0,68,0.00,,SKC,0.00,VWS V14.01,2013-03-17 01:14:00,
2013-03-16 20:19:00,72.9,62.1,29.76,SSE,151,3.0,9.0,69,0.00,,SKC,0.00,VWS V14.01,2013-03-17 01:19:00,
2013-03-16 20:20:00,73.1,61.9,29.76,SSE,147,3.0,9.0,68,0.00,,SKC,0.00,VWS V14.01,2013-03-17 01:20:00,
2013-03-16 20:24:00,72.6,61.9,29.76,SSE,163,1.0,12.0,69,0.00,,SKC,0.00,VWS V14.01,2013-03-17 01:24:00,
2013-03-16 20:29:00,72.3,62.0,29.76,South,178,6.0,12.0,70,0.00,,SKC,0.00,VWS V14.01,2013-03-17 01:29:00,
2013-03-16 20:30:00,72.5,62.2,29.76,South,170,7.0,12.0,70,0.00,,SKC,0.00,VWS V14.01,2013-03-17 01:30:00,
2013-03-16 20:34:00,72.1,62.2,29.76,South,170,1.0,14.0,71,0.00,,SKC,0.00,VWS V14.01,2013-03-17 01:34:00,
2013-03-16 20:39:00,71.8,61.9,29.76,SE,135,0.0,8.0,71,0.00,,SKC,0.00,VWS V14.01,2013-03-17 01:39:00,
2013-03-16 20:40:00,72.0,62.1,29.76,SSE,151,0.0,14.0,71,0.00,,SKC,0.00,VWS V14.01,2013-03-17 01:40:00,
2013-03-16 20:44:00,71.5,62.0,29.76,SSE,156,3.0,13.0,72,0.00,,SKC,0.00,VWS V14.01,2013-03-17 01:44:00,
2013-03-16 20:49:00,71.2,61.7,29.76,South,173,6.0,16.0,72,0.00,,SKC,0.00,VWS V14.01,2013-03-17 01:49:00,
2013-03-16 20:50:00,71.4,61.9,29.76,SSE,162,9.0,13.0,72,0.00,,SKC,0.00,VWS V14.01,2013-03-17 01:50:00,
2013-03-16 20:54:00,70.9,61.8,29.76,South,169,0.0,21.0,73,0.00,,SKC,0.00,VWS V14.01,2013-03-17 01:54:00,
2013-03-16 20:59:00,70.7,62.0,29.77,SE,144,7.0,12.0,74,0.00,,SKC,0.00,VWS V14.01,2013-03-17 01:59:00,
2013-03-16 21:00:00,70.8,61.7,29.77,SSE,167,3.0,21.0,73,0.00,,SKC,0.00,VWS V14.01,2013-03-17 02:00:00,
2013-03-16 21:04:00,70.4,61.7,29.77,South,171,6.0,15.0,74,0.00,,SKC,0.00,VWS V14.01,2013-03-17 02:04:00,
2013-03-16 21:09:00,70.2,61.9,29.77,SE,131,0.0,10.0,75,0.00,,SKC,0.00,VWS V14.01,2013-03-17 02:09:00,
2013-03-16 21:10:00,70.3,62.0,29.77,SE,137,1.0,15.0,75,0.00,,SKC,0.00,VWS V14.01,2013-03-17 02:10:00,
2013-03-16 21:14:00,69.9,61.6,29.77,SSE,161,6.0,14.0,75,0.00,,SKC,0.00,VWS V14.01,2013-03-17 02:14:00,
2013-03-16 21:19:00,69.7,61.8,29.77,ESE,116,0.0,7.0,76,0.00,,SKC,0.00,VWS V14.01,2013-03-17 02:19:00,
2013-03-16 21:20:00,69.8,61.9,29.77,SSE,161,0.0,14.0,76,0.00,,SKC,0.00,VWS V14.01,2013-03-17 02:20:00,
2013-03-16 21:24:00,69.4,61.5,29.77,SSE,151,6.0,7.0,76,0.00,,SKC,0.00,VWS V14.01,2013-03-17 02:24:00,
2013-03-16 21:29:00,69.1,61.6,29.77,SSE,167,0.0,8.0,77,0.00,,SKC,0.00,VWS V14.01,2013-03-17 02:29:00,
2013-03-16 21:30:00,69.3,61.8,29.77,SSE,157,0.0,8.0,77,0.00,,SKC,0.00,VWS V14.01,2013-03-17 02:30:00,
2013-03-16 21:34:00,68.9,61.4,29.78,SSE,154,2.0,8.0,77,0.00,,SKC,0.00,VWS V14.01,2013-03-17 02:34:00,
2013-03-16 21:39:00,68.6,61.5,29.77,SSE,156,0.0,5.0,78,0.00,,SKC,0.00,VWS V14.01,2013-03-17 02:39:00,
2013-03-16 21:40:00,68.8,61.7,29.77,SSE,150,0.0,8.0,78,0.00,,SKC,0.00,VWS V14.01,2013-03-17 02:40:00,
2013-03-16 21:44:00,68.4,61.6,29.77,SSE,163,15.0,15.0,79,0.00,,SKC,0.00,VWS V14.01,2013-03-17 02:44:00,
2013-03-16 21:49:00,68.2,61.5,29.77,SSE,157,0.0,7.0,79,0.00,,SKC,0.00,VWS V14.01,2013-03-17 02:49:00,
2013-03-16 21:50:00,68.3,61.5,29.77,SSE,161,3.0,15.0,79,0.00,,SKC,0.00,VWS V14.01,2013-03-17 02:50:00,
2013-03-16 21:54:00,68.1,61.7,29.78,SSE,157,4.0,10.0,80,0.00,,SKC,0.00,VWS V14.01,2013-03-17 02:54:00,
2013-03-16 21:59:00,67.9,61.5,29.78,South,182,4.0,10.0,80,0.00,,SKC,0.00,VWS V14.01,2013-03-17 02:59:00,
2013-03-16 22:00:00,68.0,61.6,29.78,SSE,159,2.0,10.0,80,0.00,,SKC,0.00,VWS V14.01,2013-03-17 03:00:00,
2013-03-16 22:04:00,67.7,61.3,29.78,SSE,155,0.0,12.0,80,0.00,,SKC,0.00,VWS V14.01,2013-03-17 03:04:00,
2013-03-16 22:09:00,67.5,61.5,29.79,SE,139,0.0,8.0,81,0.00,,SKC,0.00,VWS V14.01,2013-03-17 03:09:00,
2013-03-16 22:10:00,67.6,61.6,29.78,SSE,163,0.0,12.0,81,0.00,,SKC,0.00,VWS V14.01,2013-03-17 03:10:00,
2013-03-16 22:14:00,67.4,61.4,29.79,SSE,168,0.0,11.0,81,0.00,,SKC,0.00,VWS V14.01,2013-03-17 03:14:00,
2013-03-16 22:19:00,67.4,61.4,29.79,SSE,157,4.0,14.0,81,0.00,,SKC,0.00,VWS V14.01,2013-03-17 03:19:00,
2013-03-16 22:20:00,67.4,61.4,29.79,SSE,165,5.0,11.0,81,0.00,,SKC,0.00,VWS V14.01,2013-03-17 03:20:00,
2013-03-16 22:24:00,67.4,61.7,29.79,SSE,165,3.0,14.0,82,0.00,,SKC,0.00,VWS V14.01,2013-03-17 03:24:00,
2013-03-16 22:29:00,67.3,61.6,29.79,SSE,158,0.0,8.0,82,0.00,,SKC,0.00,VWS V14.01,2013-03-17 03:29:00,
2013-03-16 22:30:00,67.4,61.7,29.79,SSE,165,7.0,14.0,82,0.00,,SKC,0.00,VWS V14.01,2013-03-17 03:30:00,
2013-03-16 22:34:00,67.4,61.7,29.79,SSE,164,6.0,12.0,82,0.00,,SKC,0.00,VWS V14.01,2013-03-17 03:34:00,
2013-03-16 22:39:00,67.3,61.6,29.79,SSE,149,11.0,11.0,82,0.00,,SKC,0.00,VWS V14.01,2013-03-17 03:39:00,
2013-03-16 22:40:00,67.3,61.6,29.79,SSE,162,8.0,12.0,82,0.00,,SKC,0.00,VWS V14.01,2013-03-17 03:40:00,
2013-03-16 22:44:00,67.2,61.5,29.79,SSE,162,0.0,18.0,82,0.00,,SKC,0.00,VWS V14.01,2013-03-17 03:44:00,
2013-03-16 22:49:00,67.2,61.5,29.79,SSE,167,5.0,6.0,82,0.00,,SKC,0.00,VWS V14.01,2013-03-17 03:49:00,
2013-03-16 22:50:00,67.2,61.5,29.79,South,169,6.0,18.0,82,0.00,,SKC,0.00,VWS V14.01,2013-03-17 03:50:00,
2013-03-16 22:54:00,67.2,61.5,29.79,SSE,157,1.0,15.0,82,0.00,,SKC,0.00,VWS V14.01,2013-03-17 03:54:00,
2013-03-16 22:59:00,67.2,61.5,29.79,SSE,158,0.0,8.0,82,0.00,,SKC,0.00,VWS V14.01,2013-03-17 03:59:00,
2013-03-16 23:00:00,67.2,61.5,29.79,SSE,155,7.0,13.0,82,0.00,,SKC,0.00,VWS V14.01,2013-03-17 04:00:00,
2013-03-16 23:05:00,67.1,61.4,29.79,SSE,159,4.0,15.0,82,0.00,,SKC,0.00,VWS V14.01,2013-03-17 04:05:00,
2013-03-16 23:10:00,67.1,61.8,29.79,South,173,1.0,13.0,83,0.00,,SKC,0.00,VWS V14.01,2013-03-17 04:10:00,
2013-03-16 23:15:00,67.0,61.7,29.80,SSE,159,0.0,13.0,83,0.00,,SKC,0.00,VWS V14.01,2013-03-17 04:15:00,
2013-03-16 23:20:00,67.0,61.7,29.79,South,169,6.0,12.0,83,0.00,,SKC,0.00,VWS V14.01,2013-03-17 04:20:00,
2013-03-16 23:25:00,66.9,61.6,29.79,SSE,159,3.0,12.0,83,0.00,,SKC,0.00,VWS V14.01,2013-03-17 04:25:00,
2013-03-16 23:30:00,66.8,61.5,29.79,SSE,161,7.0,8.0,83,0.00,,SKC,0.00,VWS V14.01,2013-03-17 04:30:00,
2013-03-16 23:35:00,66.8,61.5,29.80,South,182,5.0,13.0,83,0.00,,SKC,0.00,VWS V14.01,2013-03-17 04:35:00,
2013-03-16 23:40:00,66.7,61.4,29.80,South,171,3.0,8.0,83,0.00,,SKC,0.00,VWS V14.01,2013-03-17 04:40:00,
2013-03-16 23:45:00,66.7,61.7,29.80,SSE,165,6.0,12.0,84,0.00,,SKC,0.00,VWS V14.01,2013-03-17 04:45:00,
2013-03-16 23:50:00,66.6,61.6,29.80,SSE,166,0.0,10.0,84,0.00,,SKC,0.00,VWS V14.01,2013-03-17 04:50:00,
2013-03-16 23:55:00,66.6,61.6,29.80,SSE,163,1.0,12.0,84,0.00,,SKC,0.00,VWS V14.01,2013-03-17 04:55:00,